Location: Huesca
(42.1318°N, 0.4078°W)
Time: 14:54:18
(UTC+02:00)

Tiros 1 despin weight - All Passes

Search period start: 19 July 2024 00:00
Search period end: 29 July 2024 00:00
Orbit: 576 x 620 km, 48.2° (Epoch: 18 July)

Date Brightness Start Highest point End Pass type
(mag) Time Alt. Az. Time Alt. Az. Time Alt. Az.
19 Jul - 02:41:56 10° S 02:45:21 23° SE 02:48:48 10° E visible
19 Jul - 04:21:44 10° WSW 04:26:05 81° NNW 04:30:30 10° ENE visible
19 Jul - 06:03:27 10° WNW 06:07:35 38° N 06:11:46 10° ENE visible
19 Jul - 07:45:02 10° WNW 07:49:18 46° NNE 07:53:38 10° E daylight
19 Jul - 09:26:09 10° WNW 09:30:35 64° SSW 09:35:04 10° SE daylight
19 Jul - 11:08:58 10° WSW 11:11:04 13° SW 11:13:09 10° SSW daylight
20 Jul - 02:51:08 10° SSW 02:55:09 38° SE 02:59:13 10° ENE visible
20 Jul - 04:31:52 10° W 04:36:10 58° NNW 04:40:31 10° ENE visible
20 Jul - 06:13:43 10° WNW 06:17:48 37° N 06:21:57 10° ENE daylight
20 Jul - 07:55:04 10° WNW 07:59:27 59° NNE 08:03:54 10° E daylight
20 Jul - 09:36:19 10° WNW 09:40:29 39° SW 09:44:41 10° SSE daylight
21 Jul - 01:22:46 10° SSE 01:24:36 12° SE 01:26:27 10° ESE night (unlit)
21 Jul - 03:00:45 10° SW 03:05:01 64° SSE 03:09:22 10° ENE visible
21 Jul - 04:42:06 10° W 04:46:17 45° NNW 04:50:33 10° ENE visible
21 Jul - 06:23:53 10° WNW 06:28:01 39° N 06:32:13 10° ENE daylight
21 Jul - 08:05:03 10° WNW 08:09:31 83° NNE 08:14:01 10° ESE daylight
21 Jul - 09:46:43 10° W 09:50:16 23° SW 09:53:51 10° S daylight
22 Jul - 01:30:57 10° S 01:34:17 22° SE 01:37:39 10° E visible
22 Jul - 03:10:39 10° WSW 03:15:00 83° NNW 03:19:24 10° ENE visible
22 Jul - 04:52:22 10° WNW 04:56:28 38° N 05:00:37 10° ENE visible
22 Jul - 06:33:57 10° WNW 06:38:12 45° NNE 06:42:29 10° E daylight
22 Jul - 08:15:04 10° WNW 08:19:28 65° SSW 08:23:56 10° SE daylight
22 Jul - 09:57:47 10° WSW 09:59:57 13° SW 10:02:09 10° SSW daylight
23 Jul - 01:40:04 10° SSW 01:44:02 37° SE 01:48:04 10° ENE visible
23 Jul - 03:20:45 10° W 03:25:01 59° NNW 03:29:22 10° ENE visible
23 Jul - 05:02:36 10° WNW 05:06:40 36° N 05:10:47 10° ENE visible
23 Jul - 06:43:57 10° WNW 06:48:18 58° NNE 06:52:42 10° E daylight
23 Jul - 08:25:11 10° WNW 08:29:20 40° SW 08:33:32 10° SSE daylight
24 Jul - 00:11:51 10° SSE 00:13:29 12° SE 00:15:06 10° ESE night (unlit)
24 Jul - 01:49:37 10° SW 01:53:53 62° SSE 01:58:11 10° ENE visible
24 Jul - 03:30:57 10° W 03:35:07 45° NNW 03:39:21 10° ENE visible
24 Jul - 05:12:44 10° WNW 05:16:50 38° N 05:20:59 10° ENE visible
24 Jul - 06:53:54 10° WNW 06:58:19 81° NNE 07:02:48 10° ESE daylight
24 Jul - 08:35:32 10° W 08:39:06 24° SW 08:42:42 10° SSE daylight
25 Jul - 00:19:51 10° S 00:23:07 21° SE 00:26:24 10° E night (unlit)
25 Jul - 01:59:29 10° WSW 02:03:48 85° NNW 02:08:11 10° ENE visible
25 Jul - 03:41:11 10° WNW 03:45:15 38° N 03:49:23 10° ENE visible
25 Jul - 05:22:46 10° WNW 05:26:58 44° NNE 05:31:13 10° E visible
25 Jul - 07:03:53 10° WNW 07:08:16 67° SSW 07:12:41 10° SE daylight
25 Jul - 08:46:29 10° WSW 08:48:45 14° SW 08:51:03 10° SSW daylight
26 Jul - 00:28:53 10° SSW 00:32:49 36° SE 00:36:48 10° ENE visible
26 Jul - 02:09:31 10° WSW 02:13:47 60° NNW 02:18:07 10° ENE visible
26 Jul - 03:51:22 10° WNW 03:55:24 36° N 03:59:29 10° ENE visible
26 Jul - 05:32:43 10° WNW 05:37:03 56° NNE 05:41:25 10° E visible
26 Jul - 07:13:57 10° WNW 07:18:05 41° SW 07:22:16 10° SSE daylight
26 Jul - 23:00:51 10° SSE 23:02:14 11° SE 23:03:37 10° ESE night (unlit)
27 Jul - 00:38:23 10° SW 00:42:37 60° SSE 00:46:54 10° ENE visible
27 Jul - 02:19:40 10° W 02:23:50 45° NNW 02:28:02 10° ENE visible
27 Jul - 04:01:28 10° WNW 04:05:32 38° N 04:09:39 10° ENE visible
27 Jul - 05:42:38 10° WNW 05:47:02 79° NNE 05:51:29 10° ESE visible
27 Jul - 07:24:13 10° W 07:27:49 25° SW 07:31:26 10° SSE daylight
27 Jul - 23:08:38 10° S 23:11:50 20° SE 23:15:02 10° E night (unlit)
28 Jul - 00:48:11 10° WSW 00:52:29 87° NNW 00:56:51 10° ENE visible
28 Jul - 02:29:52 10° WNW 02:33:55 39° N 02:38:02 10° ENE visible
28 Jul - 04:11:28 10° WNW 04:15:38 43° NNE 04:19:51 10° E visible
28 Jul - 05:52:34 10° WNW 05:56:56 69° SSW 06:01:20 10° SE visible
28 Jul - 07:35:04 10° W 07:37:27 14° SW 07:39:49 10° SSW daylight
28 Jul - 23:17:35 10° SSW 23:21:30 34° SE 23:25:25 10° ENE visible
